Terminal Aerodrome Forecast
Issued by NWS

Current Version | Previous Version | Graphics & Text | Print | Product List | Glossary On
Versions: 1 2 3 4 5 6 7 8 9 10 11 12 13 14 15 16
000
FTUS41 KPBZ 210500
TAFHLG
TAF
KHLG 210520Z 2106/2206 17006KT P6SM BKN250
     FM220300 VRB05KT P6SM OVC120=

USA.gov is the U.S. government's official web portal to all federal, state and local government web resources and services.